Regional Weather Roundup
Issued by NWS

Home | Current Version | Previous Version | Text Only | Print | Product List | Glossary Off
Versions: 1 2 3 4 5 6 7 8 9 10 11 12 13 14 15 16 17 18 19 20 21 22 23 24 25 26 27 28 29 30 31 32 33 34 35 36 37 38 39 40 41 42 43 44 45 46 47 48 49 50

000
ASUS43 KLOT 251858
RWRIL

ILLINOIS REGIONAL WEATHER ROUNDUP
NATIONAL WEATHER SERVICE CHICAGO/ROMEOVILLE IL
100 PM CST SUN JAN 25 2015

NOTE: "FAIR" INDICATES FEW OR NO CLOUDS BELOW 12,000 FEET WITH NO
SIGNIFICANT WEATHER AND/OR OBSTRUCTIONS TO VISIBILITY.

* THESE STATIONS ARE NOT UNDER NWS QUALITY CONTROL. THEY ALSO MAY NOT
  REPORT WEATHER SUCH AS PRECIPITATION OR FOG.

ILZ001-002-007-009-015-016-024-252000-
NORTHWEST ILLINOIS

CITY           SKY/WX    TMP DP  RH WIND       PRES   REMARKS
MOLINE         LGT SNOW  30  25  81 NE23G30   29.82R WCI  17
$$

ILZ003-004-008-010-011-017-018-252000-
NORTH CENTRAL ILLINOIS

CITY           SKY/WX    TMP DP  RH WIND       PRES   REMARKS
ROCKFORD       NOT AVBL
$$

ILZ005-006-012>014-019>023-252000-
NORTHEAST ILLINOIS

CITY           SKY/WX    TMP DP  RH WIND       PRES   REMARKS
CHICAGO-OHARE  LGT SNOW  29  25  85 NE22G32   29.81S FOG     WCI  15
CHICAGO-MIDWAY LGT SNOW  32  29  88 NE21      29.80R FOG     WCI  20
AURORA         LGT SNOW  31  24  75 NE24G31   29.79S WCI  17
WAUKEGAN       NOT AVBL
DUPAGE AIRPORT LGT SNOW  29  24  82 NE22      29.80R WCI  15
WHEELING       LGT SNOW  28  23  81 NE16G25   29.85S WCI  16
NORTHERLY ISL    N/A     29  28  96 MISG        N/A
$$

LMZ740>746-252000-
SOUTHERN LAKE MICHIGAN

STATION/POSITION SKY/WX   TEMP    WIND        PRES    VSBY  WAVE
                          AIR SEA DIR/SP/G                  HT/PER
                          (F)     (DEG/KT/KT) (MB)    (MI)  (FT/S)
WAUKEGAN HARBOR            28      40/ 28/ 35   N/A
HARRISON CRIB              29      30/ 27/ 30   N/A
BURNHAM HARBOR             30      30/ 15/ 23   N/A
CALUMET HARBOR             30      20/ 19/ 25   N/A
MICHIGAN CITY              30      30/ 20/ 22   N/A
$$

ILZ025>027-034>036-040-047-049-050-058-095>099-252000-
WEST-CENTRAL ILLINOIS

CITY           SKY/WX    TMP DP  RH WIND       PRES   REMARKS
$$

ILZ028>032-037-038-041>044-048-051>054-059>061-252000-
CENTRAL ILLINOIS

CITY           SKY/WX    TMP DP  RH WIND       PRES   REMARKS
PEORIA         NOT AVBL
SPRINGFIELD    CLOUDY    38  35  89 N17       29.65R FOG     WCI  28
TAYLORVILLE    NOT AVBL
$$

ILZ033-039-045-046-055>057-062-063-252000-
EAST-CENTRAL ILLINOIS

CITY           SKY/WX    TMP DP  RH WIND       PRES   REMARKS
CHAMPAIGN      CLOUDY    38  36  92 NE13      29.62S FOG     WCI  30
MATTOON        CLOUDY    39  39 100 E3        29.58F FOG
$$

ILZ079-100>102-252000-
SOUTHWEST ILLINOIS

CITY           SKY/WX    TMP DP  RH WIND       PRES   REMARKS
CAHOKIA*       LGT RAIN  47  44  90 W10       29.58S FOG
$$

ILZ064>066-069>071-074>076-080>082-084>086-088>090-092>094-252000-
SOUTH-CENTRAL ILLINOIS

CITY           SKY/WX    TMP DP  RH WIND       PRES   REMARKS
CARBONDALE     LGT RAIN  44  41  89 SW7       29.57F FOG
MARION         RAIN      43  41  93 S8        29.58F
$$

ILZ067-068-072-073-078-083-087-091-252000-
SOUTHEAST ILLINOIS

CITY           SKY/WX    TMP DP  RH WIND       PRES   REMARKS
LAWRENCEVILLE  CLOUDY    41  39  93 S7        29.60F FOG
$$

ABBREVIATIONS USED IN REMARKS
   TC - TEMPERATURE IN CELSIUS
  WCI - WIND CHILL INDEX
   HX - HEAT INDEX
  VSB - VISIBILITY
$$




USA.gov is the U.S. government's official web portal to all federal, state and local government web resources and services.